PRIVATE WETTERSTATION BILLIGHEIM-ALLFELD                       ZURCK
Wetterdaten: Dienstag, 17.06.2014
Datum Zeit Temp. A. Temp. A. min Temp. A. max Feuchte A. Luftdruck Regen Wind Richtung Richtung Sonnenschein ET Solar Taupunkt Windchill Windben Empfang
17.06.2014 00:00 13,8 C 13,8 C 13,9 C 70 % 1017,5 hPa 0,0 l/m 0,0 km/h (0 Bft) N-NO 22 0 min 0,025 mm 0 W/m 8,4 C 13,8 C 1,6 km/h (1 Bft) 100 %
17.06.2014 00:10 13,8 C 13,8 C 13,8 C 71 % 1017,4 hPa 0,0 l/m 0,0 km/h (0 Bft) N-NO 22 0 min 0,000 mm 0 W/m 8,6 C 13,8 C 1,6 km/h (1 Bft) 99 %
17.06.2014 00:20 13,8 C 13,8 C 13,8 C 70 % 1017,5 hPa 0,0 l/m 0,0 km/h (0 Bft) N-NO 22 0 min 0,000 mm 0 W/m 8,4 C 13,8 C 1,6 km/h (1 Bft) 100 %
17.06.2014 00:30 13,7 C 13,7 C 13,8 C 70 % 1017,5 hPa 0,0 l/m 0,0 km/h (0 Bft) N 0 0 min 0,000 mm 0 W/m 8,3 C 13,7 C 0,0 km/h (0 Bft) 100 %
17.06.2014 00:40 13,7 C 13,7 C 13,7 C 72 % 1017,5 hPa 0,0 l/m 0,0 km/h (0 Bft) N-NO 22 0 min 0,000 mm 0 W/m 8,7 C 13,7 C 4,8 km/h (1 Bft) 100 %
17.06.2014 00:50 13,7 C 13,7 C 13,7 C 72 % 1017,6 hPa 0,0 l/m 0,0 km/h (0 Bft) N-NW 337 0 min 0,000 mm 0 W/m 8,7 C 13,7 C 6,4 km/h (2 Bft) 100 %
17.06.2014 01:00 13,7 C 13,7 C 13,7 C 72 % 1017,5 hPa 0,0 l/m 0,0 km/h (0 Bft) NO 45 0 min 0,025 mm 0 W/m 8,7 C 13,7 C 11,3 km/h (2 Bft) 100 %
17.06.2014 01:10 13,6 C 13,6 C 13,7 C 72 % 1017,5 hPa 0,0 l/m 0,0 km/h (0 Bft) NW 315 0 min 0,000 mm 0 W/m 8,6 C 13,6 C 3,2 km/h (1 Bft) 100 %
17.06.2014 01:20 13,5 C 13,5 C 13,6 C 73 % 1017,6 hPa 0,0 l/m 0,0 km/h (0 Bft) N 360 0 min 0,000 mm 0 W/m 8,8 C 13,5 C 4,8 km/h (1 Bft) 100 %
17.06.2014 01:30 13,2 C 13,2 C 13,4 C 73 % 1017,7 hPa 0,0 l/m 0,0 km/h (0 Bft) N 360 0 min 0,000 mm 0 W/m 8,5 C 13,2 C 3,2 km/h (1 Bft) 100 %
17.06.2014 01:40 13,1 C 13,1 C 13,2 C 74 % 1017,7 hPa 0,0 l/m 0,0 km/h (0 Bft) NW 315 0 min 0,000 mm 0 W/m 8,6 C 13,1 C 6,4 km/h (2 Bft) 100 %
17.06.2014 01:50 12,9 C 12,9 C 13,1 C 75 % 1017,8 hPa 0,0 l/m 0,0 km/h (0 Bft) NW 315 0 min 0,000 mm 0 W/m 8,6 C 12,9 C 1,6 km/h (1 Bft) 100 %
17.06.2014 02:00 12,8 C 12,8 C 12,9 C 76 % 1017,8 hPa 0,0 l/m 0,0 km/h (0 Bft) N-NW 337 0 min 0,025 mm 0 W/m 8,7 C 12,8 C 4,8 km/h (1 Bft) 100 %
17.06.2014 02:10 12,6 C 12,6 C 12,8 C 76 % 1017,8 hPa 0,0 l/m 0,0 km/h (0 Bft) N 0 0 min 0,000 mm 0 W/m 8,5 C 12,6 C 0,0 km/h (0 Bft) 100 %
17.06.2014 02:20 12,5 C 12,5 C 12,6 C 78 % 1017,8 hPa 0,0 l/m 0,0 km/h (0 Bft) N-NW 337 0 min 0,000 mm 0 W/m 8,8 C 12,5 C 3,2 km/h (1 Bft) 100 %
17.06.2014 02:30 12,3 C 12,3 C 12,5 C 78 % 1017,7 hPa 0,0 l/m 0,0 km/h (0 Bft) N-NW 337 0 min 0,000 mm 0 W/m 8,6 C 12,3 C 1,6 km/h (1 Bft) 100 %
17.06.2014 02:40 12,2 C 12,2 C 12,3 C 79 % 1017,7 hPa 0,0 l/m 0,0 km/h (0 Bft) N-NW 337 0 min 0,000 mm 0 W/m 8,7 C 12,2 C 1,6 km/h (1 Bft) 100 %
17.06.2014 02:50 12,0 C 12,0 C 12,2 C 80 % 1017,6 hPa 0,0 l/m 0,0 km/h (0 Bft) N 0 0 min 0,000 mm 0 W/m 8,7 C 12,0 C 0,0 km/h (0 Bft) 99 %
17.06.2014 03:00 11,8 C 11,8 C 12,0 C 80 % 1017,7 hPa 0,0 l/m 0,0 km/h (0 Bft) N 0 0 min 0,025 mm 0 W/m 8,5 C 11,8 C 0,0 km/h (0 Bft) 100 %
17.06.2014 03:10 11,7 C 11,7 C 11,8 C 81 % 1017,7 hPa 0,0 l/m 0,0 km/h (0 Bft) N 0 0 min 0,000 mm 0 W/m 8,5 C 11,7 C 0,0 km/h (0 Bft) 99 %
17.06.2014 03:20 11,5 C 11,5 C 11,6 C 82 % 1017,7 hPa 0,0 l/m 0,0 km/h (0 Bft) N 0 0 min 0,000 mm 0 W/m 8,5 C 11,5 C 0,0 km/h (0 Bft) 100 %
17.06.2014 03:30 11,3 C 11,3 C 11,4 C 83 % 1017,7 hPa 0,0 l/m 0,0 km/h (0 Bft) N 0 0 min 0,000 mm 0 W/m 8,5 C 11,3 C 0,0 km/h (0 Bft) 100 %
17.06.2014 03:40 11,1 C 11,1 C 11,3 C 83 % 1017,6 hPa 0,0 l/m 0,0 km/h (0 Bft) N 0 0 min 0,000 mm 0 W/m 8,3 C 11,1 C 0,0 km/h (0 Bft) 100 %
17.06.2014 03:50 10,8 C 10,8 C 11,1 C 84 % 1017,6 hPa 0,0 l/m 0,0 km/h (0 Bft) N 0 0 min 0,000 mm 0 W/m 8,2 C 10,8 C 0,0 km/h (0 Bft) 100 %
17.06.2014 04:00 10,6 C 10,6 C 10,8 C 84 % 1017,5 hPa 0,0 l/m 0,0 km/h (0 Bft) N 0 0 min 0,000 mm 0 W/m 8,0 C 10,6 C 0,0 km/h (0 Bft) 99 %
17.06.2014 04:10 10,4 C 10,4 C 10,6 C 85 % 1017,6 hPa 0,0 l/m 0,0 km/h (0 Bft) N 0 0 min 0,000 mm 0 W/m 8,0 C 10,4 C 0,0 km/h (0 Bft) 100 %
17.06.2014 04:20 10,3 C 10,3 C 10,4 C 85 % 1017,6 hPa 0,0 l/m 0,0 km/h (0 Bft) N 0 0 min 0,000 mm 0 W/m 7,9 C 10,3 C 0,0 km/h (0 Bft) 100 %
17.06.2014 04:30 10,2 C 10,2 C 10,3 C 85 % 1017,6 hPa 0,0 l/m 0,0 km/h (0 Bft) N 0 0 min 0,000 mm 0 W/m 7,8 C 10,2 C 0,0 km/h (0 Bft) 100 %
17.06.2014 04:40 10,1 C 10,1 C 10,2 C 86 % 1017,6 hPa 0,0 l/m 0,0 km/h (0 Bft) N 0 0 min 0,000 mm 0 W/m 7,9 C 10,1 C 0,0 km/h (0 Bft) 100 %
17.06.2014 04:50 10,1 C 10,1 C 10,1 C 86 % 1017,6 hPa 0,0 l/m 0,0 km/h (0 Bft) N 0 0 min 0,000 mm 0 W/m 7,9 C 10,1 C 0,0 km/h (0 Bft) 99 %
17.06.2014 05:00 10,0 C 10,0 C 10,1 C 86 % 1017,6 hPa 0,0 l/m 0,0 km/h (0 Bft) N 0 0 min 0,000 mm 0 W/m 7,8 C 10,0 C 0,0 km/h (0 Bft) 100 %
17.06.2014 05:10 9,9 C 9,9 C 10,0 C 86 % 1017,6 hPa 0,0 l/m 0,0 km/h (0 Bft) N 0 0 min 0,000 mm 0 W/m 7,7 C 9,9 C 0,0 km/h (0 Bft) 100 %
17.06.2014 05:20 9,9 C 9,9 C 9,9 C 86 % 1017,6 hPa 0,0 l/m 0,0 km/h (0 Bft) N-NW 337 0 min 0,000 mm 0 W/m 7,7 C 9,9 C 1,6 km/h (1 Bft) 100 %
17.06.2014 05:30 9,8 C 9,8 C 9,9 C 86 % 1017,7 hPa 0,0 l/m 0,0 km/h (0 Bft) N 0 0 min 0,000 mm 5 W/m 7,6 C 9,8 C 0,0 km/h (0 Bft) 100 %
17.06.2014 05:40 9,8 C 9,8 C 9,8 C 86 % 1017,7 hPa 0,0 l/m 0,0 km/h (0 Bft) N 0 0 min 0,000 mm 7 W/m 7,6 C 9,8 C 0,0 km/h (0 Bft) 100 %
17.06.2014 05:50 9,7 C 9,7 C 9,8 C 86 % 1017,7 hPa 0,0 l/m 0,0 km/h (0 Bft) N 0 0 min 0,000 mm 12 W/m 7,5 C 9,7 C 0,0 km/h (0 Bft) 100 %
17.06.2014 06:00 9,6 C 9,6 C 9,7 C 86 % 1017,7 hPa 0,0 l/m 0,0 km/h (0 Bft) N 0 0 min 0,000 mm 18 W/m 7,4 C 9,6 C 0,0 km/h (0 Bft) 100 %
17.06.2014 06:10 9,6 C 9,6 C 9,6 C 86 % 1017,8 hPa 0,0 l/m 0,0 km/h (0 Bft) N 0 0 min 0,000 mm 21 W/m 7,4 C 9,6 C 0,0 km/h (0 Bft) 91 %
17.06.2014 06:20 9,6 C 9,6 C 9,6 C 86 % 1017,9 hPa 0,0 l/m 0,0 km/h (0 Bft) N 0 0 min 0,000 mm 25 W/m 7,4 C 9,6 C 0,0 km/h (0 Bft) 100 %
17.06.2014 06:30 9,6 C 9,6 C 9,6 C 86 % 1017,9 hPa 0,0 l/m 0,0 km/h (0 Bft) N 0 0 min 0,000 mm 26 W/m 7,4 C 9,6 C 0,0 km/h (0 Bft) 100 %
17.06.2014 06:40 9,6 C 9,6 C 9,6 C 87 % 1017,9 hPa 0,0 l/m 0,0 km/h (0 Bft) N 0 0 min 0,000 mm 32 W/m 7,5 C 9,6 C 0,0 km/h (0 Bft) 100 %
17.06.2014 06:50 9,6 C 9,6 C 9,6 C 87 % 1017,9 hPa 0,0 l/m 0,0 km/h (0 Bft) N 0 0 min 0,000 mm 47 W/m 7,5 C 9,6 C 0,0 km/h (0 Bft) 100 %
17.06.2014 07:00 9,8 C 9,6 C 9,8 C 87 % 1017,9 hPa 0,0 l/m 0,0 km/h (0 Bft) N 360 0 min 0,025 mm 67 W/m 7,7 C 9,8 C 1,6 km/h (1 Bft) 100 %
17.06.2014 07:10 10,0 C 9,8 C 10,0 C 87 % 1017,9 hPa 0,0 l/m 0,0 km/h (0 Bft) N 360 0 min 0,000 mm 67 W/m 7,9 C 10,0 C 3,2 km/h (1 Bft) 100 %
17.06.2014 07:20 10,4 C 10,1 C 10,4 C 87 % 1018,0 hPa 0,0 l/m 0,0 km/h (0 Bft) N 360 0 min 0,000 mm 77 W/m 8,3 C 10,4 C 3,2 km/h (1 Bft) 99 %
17.06.2014 07:30 10,9 C 10,4 C 10,9 C 87 % 1018,0 hPa 0,0 l/m 0,0 km/h (0 Bft) N 360 0 min 0,000 mm 86 W/m 8,8 C 10,9 C 4,8 km/h (1 Bft) 99 %
17.06.2014 07:40 11,4 C 10,9 C 11,4 C 87 % 1018,0 hPa 0,0 l/m 1,6 km/h (1 Bft) NW 315 0 min 0,000 mm 86 W/m 9,3 C 11,4 C 6,4 km/h (2 Bft) 100 %
17.06.2014 07:50 11,9 C 11,4 C 11,9 C 86 % 1018,0 hPa 0,0 l/m 0,0 km/h (0 Bft) NW 315 0 min 0,000 mm 84 W/m 9,6 C 11,9 C 6,4 km/h (2 Bft) 100 %
17.06.2014 08:00 12,3 C 11,9 C 12,3 C 85 % 1018,2 hPa 0,0 l/m 0,0 km/h (0 Bft) NW 315 0 min 0,025 mm 74 W/m 9,9 C 12,3 C 6,4 km/h (2 Bft) 100 %
17.06.2014 08:10 12,6 C 12,3 C 12,6 C 84 % 1018,2 hPa 0,0 l/m 0,0 km/h (0 Bft) N 360 0 min 0,000 mm 84 W/m 10,0 C 12,6 C 3,2 km/h (1 Bft) 100 %
17.06.2014 08:20 13,2 C 12,6 C 13,2 C 83 % 1018,2 hPa 0,0 l/m 1,6 km/h (1 Bft) N-NW 337 10 min 0,000 mm 334 W/m 10,4 C 13,2 C 11,3 km/h (2 Bft) 100 %
17.06.2014 08:30 13,9 C 13,2 C 13,9 C 82 % 1018,3 hPa 0,0 l/m 0,0 km/h (0 Bft) NW 315 10 min 0,000 mm 380 W/m 10,9 C 13,9 C 4,8 km/h (1 Bft) 100 %
17.06.2014 08:40 14,9 C 13,9 C 14,9 C 77 % 1018,3 hPa 0,0 l/m 0,0 km/h (0 Bft) W-NW 292 10 min 0,000 mm 418 W/m 10,9 C 14,9 C 6,4 km/h (2 Bft) 100 %
17.06.2014 08:50 15,6 C 14,9 C 15,6 C 74 % 1018,3 hPa 0,0 l/m 0,0 km/h (0 Bft) W-SW 247 10 min 0,000 mm 466 W/m 11,0 C 15,6 C 6,4 km/h (2 Bft) 100 %
17.06.2014 09:00 16,2 C 15,6 C 16,2 C 71 % 1018,3 hPa 0,0 l/m 0,0 km/h (0 Bft) W 270 10 min 0,178 mm 503 W/m 10,9 C 16,2 C 4,8 km/h (1 Bft) 100 %
17.06.2014 09:10 16,6 C 16,2 C 16,6 C 68 % 1018,3 hPa 0,0 l/m 0,0 km/h (0 Bft) W-NW 292 10 min 0,000 mm 540 W/m 10,7 C 16,6 C 4,8 km/h (1 Bft) 99 %
17.06.2014 09:20 17,0 C 16,6 C 17,0 C 66 % 1018,4 hPa 0,0 l/m 0,0 km/h (0 Bft) N-NW 337 10 min 0,000 mm 612 W/m 10,6 C 17,0 C 3,2 km/h (1 Bft) 100 %
17.06.2014 09:30 17,3 C 17,0 C 17,3 C 66 % 1018,5 hPa 0,0 l/m 0,0 km/h (0 Bft) NO 45 10 min 0,000 mm 601 W/m 10,9 C 17,3 C 6,4 km/h (2 Bft) 99 %
17.06.2014 09:40 17,2 C 17,1 C 17,3 C 66 % 1018,4 hPa 0,0 l/m 0,0 km/h (0 Bft) N-NW 337 10 min 0,000 mm 633 W/m 10,8 C 17,2 C 6,4 km/h (2 Bft) 100 %
17.06.2014 09:50 17,6 C 17,1 C 17,6 C 64 % 1018,5 hPa 0,0 l/m 0,7 km/h (0 Bft) S-SO 157 10 min 0,000 mm 633 W/m 10,7 C 17,6 C 9,7 km/h (2 Bft) 100 %
17.06.2014 10:00 17,9 C 17,6 C 17,9 C 61 % 1018,2 hPa 0,0 l/m 0,7 km/h (0 Bft) W-SW 241 10 min 0,000 mm 656 W/m 10,3 C 17,9 C 6,4 km/h (2 Bft) 100 %
17.06.2014 10:10 18,3 C 17,9 C 18,3 C 59 % 1018,4 hPa 0,0 l/m 0,6 km/h (0 Bft) N-NW 342 10 min 0,282 mm 724 W/m 10,1 C 18,3 C 8,0 km/h (2 Bft) 100 %
17.06.2014 10:20 18,5 C 18,3 C 18,5 C 62 % 1018,4 hPa 0,0 l/m 5,9 km/h (2 Bft) N-NW 336 10 min 0,000 mm 211 W/m 11,1 C 18,5 C 20,9 km/h (4 Bft) 100 %
17.06.2014 10:30 18,7 C 18,4 C 18,7 C 61 % 1018,3 hPa 0,0 l/m 3,8 km/h (1 Bft) N 5 10 min 0,000 mm 714 W/m 11,0 C 18,7 C 12,9 km/h (3 Bft) 100 %
17.06.2014 10:40 19,1 C 18,7 C 19,1 C 60 % 1018,3 hPa 0,0 l/m 1,0 km/h (0 Bft) W-NW 296 10 min 0,000 mm 765 W/m 11,1 C 19,1 C 9,7 km/h (2 Bft) 100 %
17.06.2014 10:50 19,7 C 19,1 C 19,7 C 58 % 1018,4 hPa 0,0 l/m 0,7 km/h (0 Bft) N-NW 328 10 min 0,000 mm 821 W/m 11,2 C 19,7 C 8,0 km/h (2 Bft) 100 %
17.06.2014 11:00 20,0 C 19,7 C 20,0 C 57 % 1018,4 hPa 0,0 l/m 2,6 km/h (1 Bft) NW 319 10 min 0,431 mm 786 W/m 11,2 C 20,0 C 17,7 km/h (3 Bft) 100 %
17.06.2014 11:10 20,0 C 20,0 C 20,1 C 56 % 1018,3 hPa 0,0 l/m 4,3 km/h (1 Bft) N 355 10 min 0,000 mm 763 W/m 11,0 C 20,0 C 11,3 km/h (2 Bft) 99 %
17.06.2014 11:20 20,0 C 19,9 C 20,0 C 56 % 1018,4 hPa 0,0 l/m 1,2 km/h (1 Bft) O-SO 122 10 min 0,000 mm 795 W/m 11,0 C 20,0 C 11,3 km/h (2 Bft) 100 %
17.06.2014 11:30 20,2 C 19,9 C 20,2 C 56 % 1018,3 hPa 0,0 l/m 3,7 km/h (1 Bft) N-NW 329 10 min 0,000 mm 643 W/m 11,1 C 20,2 C 17,7 km/h (3 Bft) 100 %
17.06.2014 11:40 20,0 C 20,0 C 20,2 C 57 % 1018,4 hPa 0,0 l/m 0,4 km/h (0 Bft) SW 221 10 min 0,000 mm 338 W/m 11,2 C 20,0 C 4,8 km/h (1 Bft) 100 %
17.06.2014 11:50 20,3 C 19,9 C 20,3 C 58 % 1018,4 hPa 0,0 l/m 1,2 km/h (1 Bft) NW 325 10 min 0,000 mm 951 W/m 11,8 C 20,3 C 9,7 km/h (2 Bft) 100 %
17.06.2014 12:00 19,5 C 19,5 C 20,4 C 55 % 1018,3 hPa 0,0 l/m 1,4 km/h (1 Bft) NW 319 10 min 0,407 mm 387 W/m 10,2 C 19,5 C 9,7 km/h (2 Bft) 100 %
17.06.2014 12:10 19,2 C 19,2 C 19,5 C 57 % 1018,2 hPa 0,0 l/m 2,8 km/h (1 Bft) NW 316 10 min 0,000 mm 462 W/m 10,5 C 19,2 C 11,3 km/h (2 Bft) 100 %
17.06.2014 12:20 19,4 C 19,2 C 19,4 C 57 % 1018,3 hPa 0,0 l/m 3,3 km/h (1 Bft) W-NW 288 10 min 0,000 mm 480 W/m 10,7 C 19,4 C 11,3 km/h (2 Bft) 100 %
17.06.2014 12:30 19,6 C 19,4 C 19,6 C 58 % 1018,2 hPa 0,0 l/m 1,7 km/h (1 Bft) W-NW 300 10 min 0,000 mm 860 W/m 11,1 C 19,6 C 9,7 km/h (2 Bft) 100 %
17.06.2014 12:40 19,6 C 19,6 C 19,7 C 56 % 1018,2 hPa 0,0 l/m 0,9 km/h (0 Bft) N-NW 329 10 min 0,000 mm 373 W/m 10,6 C 19,6 C 14,5 km/h (3 Bft) 100 %
17.06.2014 12:50 19,4 C 19,4 C 19,6 C 56 % 1018,2 hPa 0,0 l/m 0,5 km/h (0 Bft) NO 39 10 min 0,000 mm 390 W/m 10,4 C 19,4 C 4,8 km/h (1 Bft) 100 %
17.06.2014 13:00 19,6 C 19,4 C 19,6 C 56 % 1018,0 hPa 0,0 l/m 2,2 km/h (1 Bft) SO 127 10 min 0,305 mm 896 W/m 10,6 C 19,6 C 11,3 km/h (2 Bft) 100 %
17.06.2014 13:10 20,8 C 19,6 C 20,8 C 53 % 1018,0 hPa 0,0 l/m 1,9 km/h (1 Bft) NW 326 10 min 0,000 mm 1167 W/m 10,9 C 20,8 C 12,9 km/h (3 Bft) 100 %
17.06.2014 13:20 21,4 C 20,8 C 21,4 C 51 % 1018,0 hPa 0,0 l/m 2,2 km/h (1 Bft) N 350 10 min 0,000 mm 517 W/m 10,8 C 21,4 C 9,7 km/h (2 Bft) 100 %
17.06.2014 13:30 21,9 C 21,4 C 21,9 C 54 % 1018,1 hPa 0,0 l/m 1,3 km/h (1 Bft) SW 233 10 min 0,000 mm 1204 W/m 12,2 C 21,9 C 11,3 km/h (2 Bft) 100 %
17.06.2014 13:40 22,2 C 21,9 C 22,2 C 48 % 1018,0 hPa 0,0 l/m 2,7 km/h (1 Bft) NW 315 10 min 0,000 mm 559 W/m 10,7 C 22,2 C 9,7 km/h (2 Bft) 100 %
17.06.2014 13:50 21,7 C 21,7 C 22,2 C 49 % 1017,9 hPa 0,0 l/m 1,5 km/h (1 Bft) W-SW 238 10 min 0,000 mm 550 W/m 10,5 C 21,7 C 16,1 km/h (3 Bft) 100 %
17.06.2014 14:00 21,6 C 21,6 C 21,7 C 50 % 1017,9 hPa 0,0 l/m 0,7 km/h (0 Bft) NW 315 10 min 0,482 mm 406 W/m 10,7 C 21,6 C 6,4 km/h (2 Bft) 100 %
17.06.2014 14:10 21,1 C 21,1 C 21,6 C 52 % 1017,7 hPa 0,0 l/m 3,4 km/h (1 Bft) N-NW 331 10 min 0,000 mm 371 W/m 10,9 C 21,1 C 17,7 km/h (3 Bft) 100 %
17.06.2014 14:20 20,8 C 20,8 C 21,1 C 51 % 1017,8 hPa 0,0 l/m 0,2 km/h (0 Bft) NW 320 10 min 0,000 mm 413 W/m 10,3 C 20,8 C 4,8 km/h (1 Bft) 100 %
17.06.2014 14:30 21,3 C 20,8 C 21,3 C 51 % 1017,6 hPa 0,0 l/m 1,0 km/h (0 Bft) NW 317 10 min 0,000 mm 348 W/m 10,7 C 21,3 C 9,7 km/h (2 Bft) 100 %
17.06.2014 14:40 21,1 C 21,1 C 21,3 C 52 % 1017,5 hPa 0,0 l/m 3,0 km/h (1 Bft) N-NO 22 10 min 0,000 mm 343 W/m 10,9 C 21,1 C 14,5 km/h (3 Bft) 100 %
17.06.2014 14:50 21,7 C 21,1 C 21,7 C 50 % 1017,5 hPa 0,0 l/m 6,7 km/h (2 Bft) NW 319 10 min 0,000 mm 919 W/m 10,8 C 21,6 C 17,7 km/h (3 Bft) 100 %
17.06.2014 15:00 22,1 C 21,7 C 22,1 C 50 % 1017,3 hPa 0,0 l/m 1,5 km/h (1 Bft) NO 34 10 min 0,356 mm 469 W/m 11,2 C 22,1 C 11,3 km/h (2 Bft) 100 %
17.06.2014 15:10 22,5 C 22,1 C 22,5 C 50 % 1017,2 hPa 0,0 l/m 1,6 km/h (1 Bft) N-NW 328 10 min 0,000 mm 912 W/m 11,5 C 22,5 C 14,5 km/h (3 Bft) 100 %
17.06.2014 15:20 23,0 C 22,5 C 23,0 C 46 % 1017,2 hPa 0,0 l/m 3,4 km/h (1 Bft) NO 49 10 min 0,000 mm 265 W/m 10,7 C 23,0 C 17,7 km/h (3 Bft) 100 %
17.06.2014 15:30 22,9 C 22,8 C 23,0 C 48 % 1017,2 hPa 0,0 l/m 1,8 km/h (1 Bft) NW 313 10 min 0,000 mm 255 W/m 11,3 C 22,9 C 11,3 km/h (2 Bft) 100 %
17.06.2014 15:40 22,7 C 22,7 C 22,9 C 47 % 1017,0 hPa 0,0 l/m 8,9 km/h (2 Bft) N-NW 336 10 min 0,000 mm 763 W/m 10,8 C 21,9 C 20,9 km/h (4 Bft) 100 %
17.06.2014 15:50 22,8 C 22,7 C 22,9 C 47 % 1017,0 hPa 0,0 l/m 3,7 km/h (1 Bft) S 176 10 min 0,000 mm 218 W/m 10,9 C 22,8 C 19,3 km/h (3 Bft) 99 %
17.06.2014 16:00 22,1 C 22,1 C 22,8 C 50 % 1017,0 hPa 0,0 l/m 1,2 km/h (1 Bft) NW 319 10 min 0,406 mm 599 W/m 11,2 C 22,1 C 9,7 km/h (2 Bft) 100 %
17.06.2014 16:10 22,3 C 22,0 C 22,3 C 49 % 1016,8 hPa 0,0 l/m 0,9 km/h (0 Bft) NW 312 10 min 0,000 mm 722 W/m 11,1 C 22,3 C 11,3 km/h (2 Bft) 99 %
17.06.2014 16:20 22,2 C 22,2 C 22,4 C 49 % 1016,9 hPa 0,0 l/m 0,7 km/h (0 Bft) NW 317 10 min 0,000 mm 195 W/m 11,0 C 22,2 C 6,4 km/h (2 Bft) 99 %
17.06.2014 16:30 21,7 C 21,7 C 22,2 C 51 % 1016,7 hPa 0,0 l/m 6,1 km/h (2 Bft) NW 307 10 min 0,000 mm 281 W/m 11,1 C 21,7 C 16,1 km/h (3 Bft) 99 %
17.06.2014 16:40 22,2 C 21,7 C 22,2 C 50 % 1016,6 hPa 0,0 l/m 6,3 km/h (2 Bft) NW 304 10 min 0,000 mm 793 W/m 11,3 C 22,2 C 17,7 km/h (3 Bft) 98 %
17.06.2014 16:50 22,3 C 22,2 C 22,5 C 49 % 1016,7 hPa 0,0 l/m 1,6 km/h (1 Bft) N-NW 348 10 min 0,000 mm 209 W/m 11,1 C 22,3 C 27,4 km/h (4 Bft) 98 %
17.06.2014 17:00 22,2 C 22,1 C 22,3 C 49 % 1016,5 hPa 0,0 l/m 3,4 km/h (1 Bft) O-NO 68 10 min 0,305 mm 431 W/m 11,0 C 22,2 C 16,1 km/h (3 Bft) 98 %
17.06.2014 17:10 22,0 C 22,0 C 22,3 C 50 % 1016,4 hPa 0,0 l/m 0,3 km/h (0 Bft) N-NW 343 0 min 0,000 mm 120 W/m 11,1 C 22,0 C 4,8 km/h (1 Bft) 98 %
17.06.2014 17:20 21,4 C 21,4 C 22,0 C 50 % 1016,3 hPa 0,0 l/m 1,0 km/h (0 Bft) N-NW 327 10 min 0,000 mm 589 W/m 10,5 C 21,4 C 8,0 km/h (2 Bft) 99 %
17.06.2014 17:30 22,0 C 21,4 C 22,0 C 50 % 1016,3 hPa 0,0 l/m 5,7 km/h (1 Bft) O-NO 78 10 min 0,000 mm 230 W/m 11,1 C 22,0 C 20,9 km/h (4 Bft) 98 %
17.06.2014 17:40 22,4 C 22,0 C 22,4 C 49 % 1016,3 hPa 0,0 l/m 1,9 km/h (1 Bft) N 10 10 min 0,000 mm 267 W/m 11,2 C 22,4 C 9,7 km/h (2 Bft) 98 %
17.06.2014 17:50 22,6 C 22,4 C 22,6 C 48 % 1016,3 hPa 0,0 l/m 3,5 km/h (1 Bft) O 83 10 min 0,000 mm 536 W/m 11,0 C 22,6 C 17,7 km/h (3 Bft) 99 %
17.06.2014 18:00 22,6 C 22,6 C 22,6 C 48 % 1016,3 hPa 0,0 l/m 5,4 km/h (1 Bft) NW 323 10 min 0,254 mm 480 W/m 11,0 C 22,6 C 19,3 km/h (3 Bft) 99 %
17.06.2014 18:10 22,6 C 22,6 C 22,7 C 49 % 1016,4 hPa 0,0 l/m 3,0 km/h (1 Bft) SW 231 10 min 0,000 mm 250 W/m 11,3 C 22,6 C 16,1 km/h (3 Bft) 99 %
17.06.2014 18:20 22,3 C 22,3 C 22,6 C 50 % 1016,3 hPa 0,0 l/m 1,3 km/h (1 Bft) NW 324 10 min 0,000 mm 480 W/m 11,4 C 22,3 C 11,3 km/h (2 Bft) 99 %
17.06.2014 18:30 22,4 C 22,2 C 22,4 C 50 % 1016,3 hPa 0,0 l/m 8,9 km/h (2 Bft) NW 306 10 min 0,000 mm 323 W/m 11,5 C 21,6 C 24,1 km/h (4 Bft) 99 %
17.06.2014 18:40 22,1 C 22,1 C 22,4 C 50 % 1016,2 hPa 0,0 l/m 1,6 km/h (1 Bft) S-SW 212 10 min 0,000 mm 468 W/m 11,2 C 22,1 C 14,5 km/h (3 Bft) 99 %
17.06.2014 18:50 21,9 C 21,9 C 22,1 C 50 % 1016,2 hPa 0,0 l/m 1,2 km/h (1 Bft) N-NW 332 10 min 0,000 mm 339 W/m 11,0 C 21,9 C 6,4 km/h (2 Bft) 99 %
17.06.2014 19:00 21,6 C 21,6 C 21,9 C 51 % 1016,3 hPa 0,0 l/m 0,8 km/h (0 Bft) N-NW 327 10 min 0,254 mm 279 W/m 11,0 C 21,6 C 11,3 km/h (2 Bft) 98 %
17.06.2014 19:10 21,4 C 21,4 C 21,6 C 52 % 1016,3 hPa 0,0 l/m 0,2 km/h (0 Bft) W-NW 302 10 min 0,000 mm 276 W/m 11,1 C 21,4 C 3,2 km/h (1 Bft) 99 %
17.06.2014 19:20 21,2 C 21,2 C 21,4 C 52 % 1016,3 hPa 0,0 l/m 3,2 km/h (1 Bft) W-NW 283 10 min 0,000 mm 281 W/m 10,9 C 21,2 C 17,7 km/h (3 Bft) 99 %
17.06.2014 19:30 21,1 C 21,1 C 21,2 C 51 % 1016,3 hPa 0,0 l/m 2,8 km/h (1 Bft) N-NW 333 10 min 0,000 mm 232 W/m 10,6 C 21,1 C 11,3 km/h (2 Bft) 99 %
17.06.2014 19:40 20,7 C 20,7 C 21,1 C 52 % 1016,4 hPa 0,0 l/m 3,1 km/h (1 Bft) N-NW 339 10 min 0,000 mm 179 W/m 10,5 C 20,7 C 14,5 km/h (3 Bft) 99 %
17.06.2014 19:50 20,5 C 20,5 C 20,7 C 53 % 1016,5 hPa 0,0 l/m 5,0 km/h (1 Bft) N-NW 333 0 min 0,000 mm 67 W/m 10,6 C 20,5 C 17,7 km/h (3 Bft) 99 %
17.06.2014 20:00 20,3 C 20,3 C 20,5 C 53 % 1016,5 hPa 0,0 l/m 7,4 km/h (2 Bft) NW 312 0 min 0,152 mm 63 W/m 10,4 C 19,9 C 22,5 km/h (4 Bft) 100 %
17.06.2014 20:10 20,0 C 20,0 C 20,3 C 54 % 1016,7 hPa 0,0 l/m 3,8 km/h (1 Bft) NW 306 0 min 0,000 mm 72 W/m 10,4 C 20,0 C 17,7 km/h (3 Bft) 99 %
17.06.2014 20:20 19,9 C 19,9 C 20,0 C 54 % 1016,7 hPa 0,0 l/m 2,6 km/h (1 Bft) N 9 0 min 0,000 mm 65 W/m 10,3 C 19,9 C 14,5 km/h (3 Bft) 99 %
17.06.2014 20:30 19,8 C 19,8 C 19,9 C 56 % 1016,8 hPa 0,0 l/m 1,1 km/h (1 Bft) W 263 0 min 0,000 mm 49 W/m 10,8 C 19,8 C 11,3 km/h (2 Bft) 99 %
17.06.2014 20:40 19,5 C 19,5 C 19,8 C 56 % 1016,8 hPa 0,0 l/m 0,0 km/h (0 Bft) W 281 0 min 0,000 mm 42 W/m 10,5 C 19,5 C 1,6 km/h (1 Bft) 100 %
17.06.2014 20:50 19,3 C 19,3 C 19,5 C 56 % 1016,8 hPa 0,0 l/m 0,1 km/h (0 Bft) W 269 0 min 0,000 mm 37 W/m 10,3 C 19,3 C 3,2 km/h (1 Bft) 100 %
17.06.2014 21:00 19,0 C 19,0 C 19,3 C 56 % 1016,8 hPa 0,0 l/m 0,5 km/h (0 Bft) N-NW 336 0 min 0,051 mm 30 W/m 10,0 C 19,0 C 8,0 km/h (2 Bft) 100 %
17.06.2014 21:10 18,7 C 18,7 C 19,0 C 57 % 1016,8 hPa 0,0 l/m 0,0 km/h (0 Bft) NW 315 0 min 0,000 mm 30 W/m 10,0 C 18,7 C 6,4 km/h (2 Bft) 100 %
17.06.2014 21:20 18,3 C 18,3 C 18,7 C 60 % 1017,0 hPa 0,0 l/m 0,0 km/h (0 Bft) N 0 0 min 0,000 mm 19 W/m 10,4 C 18,3 C 0,0 km/h (0 Bft) 100 %
17.06.2014 21:30 17,7 C 17,7 C 18,3 C 62 % 1017,0 hPa 0,0 l/m 0,0 km/h (0 Bft) N 0 0 min 0,000 mm 7 W/m 10,3 C 17,7 C 0,0 km/h (0 Bft) 100 %
17.06.2014 21:40 17,2 C 17,2 C 17,8 C 64 % 1017,2 hPa 0,0 l/m 0,0 km/h (0 Bft) NW 315 0 min 0,000 mm 0 W/m 10,3 C 17,2 C 1,6 km/h (1 Bft) 100 %
17.06.2014 21:50 16,6 C 16,6 C 17,2 C 66 % 1017,3 hPa 0,0 l/m 0,0 km/h (0 Bft) N 0 0 min 0,000 mm 5 W/m 10,2 C 16,6 C 0,0 km/h (0 Bft) 100 %
17.06.2014 22:00 16,1 C 16,1 C 16,6 C 68 % 1017,4 hPa 0,0 l/m 0,0 km/h (0 Bft) NW 315 0 min 0,025 mm 0 W/m 10,2 C 16,1 C 1,6 km/h (1 Bft) 99 %
17.06.2014 22:10 15,7 C 15,7 C 16,1 C 70 % 1017,5 hPa 0,0 l/m 0,0 km/h (0 Bft) NW 315 0 min 0,000 mm 0 W/m 10,2 C 15,7 C 3,2 km/h (1 Bft) 100 %
17.06.2014 22:20 15,4 C 15,4 C 15,7 C 70 % 1017,7 hPa 0,0 l/m 0,0 km/h (0 Bft) N-NO 22 0 min 0,000 mm 0 W/m 10,0 C 15,4 C 1,6 km/h (1 Bft) 100 %
17.06.2014 22:30 15,4 C 15,4 C 15,4 C 70 % 1017,7 hPa 0,0 l/m 0,0 km/h (0 Bft) O 90 0 min 0,000 mm 0 W/m 10,0 C 15,4 C 3,2 km/h (1 Bft) 100 %
17.06.2014 22:40 15,6 C 15,4 C 15,6 C 68 % 1017,8 hPa 0,0 l/m 0,0 km/h (0 Bft) O-SO 112 0 min 0,000 mm 0 W/m 9,7 C 15,6 C 4,8 km/h (1 Bft) 100 %
17.06.2014 22:50 15,7 C 15,6 C 15,7 C 68 % 1018,0 hPa 0,0 l/m 0,0 km/h (0 Bft) SO 135 0 min 0,000 mm 0 W/m 9,8 C 15,7 C 6,4 km/h (2 Bft) 100 %
17.06.2014 23:00 15,7 C 15,7 C 15,7 C 68 % 1018,0 hPa 0,0 l/m 0,0 km/h (0 Bft) SO 135 0 min 0,025 mm 0 W/m 9,8 C 15,7 C 1,6 km/h (1 Bft) 100 %
17.06.2014 23:10 15,7 C 15,7 C 15,7 C 69 % 1017,9 hPa 0,0 l/m 0,0 km/h (0 Bft) N 0 0 min 0,000 mm 0 W/m 10,0 C 15,7 C 0,0 km/h (0 Bft) 100 %
17.06.2014 23:20 15,7 C 15,7 C 15,7 C 70 % 1017,8 hPa 0,0 l/m 0,0 km/h (0 Bft) SO 135 0 min 0,000 mm 0 W/m 10,2 C 15,7 C 3,2 km/h (1 Bft) 100 %
17.06.2014 23:30 15,6 C 15,6 C 15,7 C 71 % 1017,8 hPa 0,0 l/m 0,0 km/h (0 Bft) SO 135 0 min 0,000 mm 0 W/m 10,4 C 15,6 C 1,6 km/h (1 Bft) 100 %
17.06.2014 23:40 15,4 C 15,4 C 15,6 C 71 % 1017,8 hPa 0,0 l/m 0,0 km/h (0 Bft) SO 135 0 min 0,000 mm 0 W/m 10,2 C 15,4 C 1,6 km/h (1 Bft) 100 %
17.06.2014 23:50 15,4 C 15,4 C 15,4 C 72 % 1017,8 hPa 0,0 l/m 0,0 km/h (0 Bft) O 90 0 min 0,000 mm 0 W/m 10,4 C 15,4 C 3,2 km/h (1 Bft) 100 %
_ Min-Zeit 06:00 06:00 06:10 15:20 18:40 - 00:00 - - - - - 06:00 06:00 00:30 06:10
Minimum _ 9,6 C 9,6 C 9,6 C 46 % 1016,2 hPa - 0,0 km/h (0 Bft) - - - - - 7,4 C 9,6 C 0,0 km/h (0 Bft) 91 %
_ Max-Zeit 15:20 15:30 15:20 06:40 09:30 00:00 15:40 - - 08:20 14:00 13:30 13:30 15:20 16:50 00:00
Maximum _ 23,0 C 22,8 C 23,0 C 87 % 1018,5 hPa 0,0 l/m 8,9 km/h
N-NW (2 Bft)
- - 10 min 0,482 mm 1204 W/m 12,2 C 23,0 C 27,4 km/h
NW (4 Bft)
100 %
Durchschnitt _ 16,8 C 16,6 C 16,9 C 66 % 1017,5 hPa #0,0 l/m 1,2 km/h (1 Bft) NW - #11:20 h #4,063 mm 374 W/m 9,9 C 16,7 C 7,3 km/h (2 Bft) 100 %
PRIVATE WETTERSTATION BILLIGHEIM-ALLFELD - www.neckar-odenwald-wetter.de - Holger Sonntag